contact:dominique.lefevre@mio.osupytheas.fr, maurice.libes@osupytheas.fr, didier.mallarino@osupytheas.fr
Project:EMSO http://www.emso-fr.org/EMSO-France
Depth: 2436.0 m
Title:EMSO Ligure Ouest : Data MII capteur MICROCAT
DateTime_Computer,Latitude,Longitude,Temperature,Conductivity,Pressure,DateTime_Instrument
DateTime_Computer,Latitude,Longitude,degC,S m-1,dbar,DateTime_Instrument
2022-11-12T00:00:21Z,42.805,6.029,13.3016,4.60063,2470.693,2022-11-12T02:02:19Z
2022-11-12T00:03:24Z,42.805,6.029,13.3015,4.60063,2470.67,2022-11-12T02:05:22Z
2022-11-12T00:06:27Z,42.805,6.029,13.3020,4.60062,2470.684,2022-11-12T02:08:25Z
2022-11-12T00:09:30Z,42.805,6.029,13.3017,4.60065,2470.661,2022-11-12T02:11:28Z
2022-11-12T00:12:33Z,42.805,6.029,13.3014,4.60062,2470.684,2022-11-12T02:14:31Z
2022-11-12T00:15:36Z,42.805,6.029,13.3016,4.60062,2470.661,2022-11-12T02:17:34Z
2022-11-12T00:18:40Z,42.805,6.029,13.3012,4.60064,2470.67,2022-11-12T02:20:37Z
2022-11-12T00:21:43Z,42.805,6.029,13.3014,4.60062,2470.661,2022-11-12T02:23:40Z
2022-11-12T00:24:46Z,42.805,6.029,13.3013,4.60062,2470.67,2022-11-12T02:26:44Z
2022-11-12T00:27:49Z,42.805,6.029,13.3016,4.60063,2470.637,2022-11-12T02:29:47Z
2022-11-12T00:30:52Z,42.805,6.029,13.3013,4.60066,2470.646,2022-11-12T02:32:50Z
2022-11-12T00:33:55Z,42.805,6.029,13.3015,4.60063,2470.637,2022-11-12T02:35:53Z
2022-11-12T00:36:58Z,42.805,6.029,13.3015,4.60064,2470.646,2022-11-12T02:38:56Z
2022-11-12T00:40:01Z,42.805,6.029,13.3016,4.60063,2470.614,2022-11-12T02:41:59Z
2022-11-12T00:43:04Z,42.805,6.029,13.3018,4.60063,2470.693,2022-11-12T02:45:02Z
2022-11-12T00:46:07Z,42.805,6.029,13.3019,4.60062,2470.656,2022-11-12T02:48:05Z
2022-11-12T00:49:10Z,42.805,6.029,13.3016,4.60064,2470.614,2022-11-12T02:51:08Z
2022-11-12T00:52:13Z,42.805,6.029,13.3014,4.60066,2470.646,2022-11-12T02:54:11Z
2022-11-12T00:55:16Z,42.805,6.029,13.3019,4.60064,2470.624,2022-11-12T02:57:14Z
2022-11-12T00:58:20Z,42.805,6.029,13.3015,4.60064,2470.637,2022-11-12T03:00:17Z
2022-11-12T01:01:23Z,42.805,6.029,13.3019,4.60064,2470.637,2022-11-12T03:03:21Z
2022-11-12T01:04:26Z,42.805,6.029,13.3018,4.60064,2470.646,2022-11-12T03:06:24Z
2022-11-12T01:07:29Z,42.805,6.029,13.3012,4.60064,2470.661,2022-11-12T03:09:27Z
2022-11-12T01:10:32Z,42.805,6.029,13.3019,4.60064,2470.637,2022-11-12T03:12:30Z
2022-11-12T01:13:35Z,42.805,6.029,13.3015,4.60064,2470.661,2022-11-12T03:15:33Z
2022-11-12T01:16:38Z,42.805,6.029,13.3015,4.60064,2470.646,2022-11-12T03:18:36Z
2022-11-12T01:19:41Z,42.805,6.029,13.3018,4.60065,2470.646,2022-11-12T03:21:39Z
2022-11-12T01:22:44Z,42.805,6.029,13.3013,4.60063,2470.637,2022-11-12T03:24:42Z
2022-11-12T01:25:47Z,42.805,6.029,13.3019,4.60064,2470.646,2022-11-12T03:27:45Z
2022-11-12T01:28:50Z,42.805,6.029,13.3014,4.60064,2470.6,2022-11-12T03:30:48Z
2022-11-12T01:31:53Z,42.805,6.029,13.3019,4.60063,2470.661,2022-11-12T03:33:51Z
2022-11-12T01:34:56Z,42.805,6.029,13.3018,4.60063,2470.646,2022-11-12T03:36:54Z
2022-11-12T01:38:00Z,42.805,6.029,13.3017,4.60064,2470.624,2022-11-12T03:39:57Z
2022-11-12T01:41:03Z,42.805,6.029,13.3014,4.60063,2470.624,2022-11-12T03:43:00Z
2022-11-12T01:44:06Z,42.805,6.029,13.3015,4.60064,2470.661,2022-11-12T03:46:04Z
2022-11-12T01:47:09Z,42.805,6.029,13.3013,4.60064,2470.661,2022-11-12T03:49:07Z
2022-11-12T01:50:12Z,42.805,6.029,13.3019,4.60064,2470.637,2022-11-12T03:52:10Z
2022-11-12T01:53:15Z,42.805,6.029,13.3018,4.60064,2470.661,2022-11-12T03:55:13Z
2022-11-12T01:56:18Z,42.805,6.029,13.3020,4.60064,2470.684,2022-11-12T03:58:16Z
2022-11-12T01:59:21Z,42.805,6.029,13.3019,4.60067,2470.661,2022-11-12T04:01:19Z
2022-11-12T02:02:24Z,42.805,6.029,13.3018,4.60068,2470.646,2022-11-12T04:04:22Z
2022-11-12T02:05:27Z,42.805,6.029,13.3016,4.60065,2470.624,2022-11-12T04:07:25Z
2022-11-12T02:08:30Z,42.805,6.029,13.3015,4.60064,2470.614,2022-11-12T04:10:28Z
2022-11-12T02:11:33Z,42.805,6.029,13.3015,4.60067,2470.614,2022-11-12T04:13:31Z
2022-11-12T02:14:36Z,42.805,6.029,13.3019,4.60064,2470.637,2022-11-12T04:16:34Z
2022-11-12T02:17:40Z,42.805,6.029,13.3019,4.60065,2470.637,2022-11-12T04:19:37Z
2022-11-12T02:20:43Z,42.805,6.029,13.3017,4.60066,2470.624,2022-11-12T04:22:41Z
2022-11-12T02:23:46Z,42.805,6.029,13.3014,4.60069,2470.637,2022-11-12T04:25:44Z
2022-11-12T02:26:49Z,42.805,6.029,13.3014,4.60067,2470.624,2022-11-12T04:28:47Z
2022-11-12T02:29:52Z,42.805,6.029,13.3018,4.60072,2470.637,2022-11-12T04:31:50Z
2022-11-12T02:32:55Z,42.805,6.029,13.3015,4.60072,2470.624,2022-11-12T04:34:53Z
2022-11-12T02:35:58Z,42.805,6.029,13.3017,4.60069,2470.614,2022-11-12T04:37:56Z
2022-11-12T02:39:01Z,42.805,6.029,13.3020,4.60078,2470.624,2022-11-12T04:40:59Z
2022-11-12T02:42:04Z,42.805,6.029,13.3018,4.60073,2470.637,2022-11-12T04:44:02Z
2022-11-12T02:45:07Z,42.805,6.029,13.3014,4.60077,2470.637,2022-11-12T04:47:05Z
2022-11-12T02:48:10Z,42.805,6.029,13.3018,4.60074,2470.646,2022-11-12T04:50:08Z
2022-11-12T02:51:13Z,42.805,6.029,13.3018,4.60073,2470.661,2022-11-12T04:53:11Z
2022-11-12T02:54:16Z,42.805,6.029,13.3014,4.60074,2470.661,2022-11-12T04:56:14Z
2022-11-12T02:57:20Z,42.805,6.029,13.3020,4.60076,2470.6,2022-11-12T04:59:17Z
2022-11-12T03:00:23Z,42.805,6.029,13.3032,4.60083,2470.637,2022-11-12T05:02:21Z
2022-11-12T03:03:26Z,42.805,6.029,13.3020,4.60083,2470.624,2022-11-12T05:05:24Z
2022-11-12T03:06:29Z,42.805,6.029,13.3019,4.60091,2470.624,2022-11-12T05:08:27Z
2022-11-12T03:09:32Z,42.805,6.029,13.3033,4.60088,2470.637,2022-11-12T05:11:30Z
2022-11-12T03:12:35Z,42.805,6.029,13.3056,4.60117,2470.637,2022-11-12T05:14:33Z
2022-11-12T03:15:38Z,42.805,6.029,13.3051,4.60088,2470.6,2022-11-12T05:17:36Z
2022-11-12T03:18:41Z,42.805,6.029,13.3023,4.60097,2470.661,2022-11-12T05:20:39Z
2022-11-12T03:21:44Z,42.805,6.029,13.3038,4.60086,2470.614,2022-11-12T05:23:42Z
2022-11-12T03:24:47Z,42.805,6.029,13.3041,4.60095,2470.614,2022-11-12T05:26:45Z
2022-11-12T03:27:50Z,42.805,6.029,13.3049,4.60088,2470.6,2022-11-12T05:29:48Z
2022-11-12T03:30:53Z,42.805,6.029,13.3037,4.60106,2470.614,2022-11-12T05:32:51Z
2022-11-12T03:33:57Z,42.805,6.029,13.3048,4.60102,2470.637,2022-11-12T05:35:54Z
2022-11-12T03:37:00Z,42.805,6.029,13.3066,4.60091,2470.614,2022-11-12T05:38:57Z
2022-11-12T03:40:03Z,42.805,6.029,13.3044,4.60089,2470.591,2022-11-12T05:42:01Z
2022-11-12T03:43:06Z,42.805,6.029,13.3021,4.60090,2470.591,2022-11-12T05:45:04Z
2022-11-12T03:46:09Z,42.805,6.029,13.3026,4.60092,2470.6,2022-11-12T05:48:07Z
2022-11-12T03:49:12Z,42.805,6.029,13.3057,4.60096,2470.577,2022-11-12T05:51:10Z
2022-11-12T03:52:15Z,42.805,6.029,13.3042,4.60103,2470.646,2022-11-12T05:54:13Z
2022-11-12T03:55:18Z,42.805,6.029,13.3040,4.60085,2470.577,2022-11-12T05:57:16Z
2022-11-12T03:58:21Z,42.805,6.029,13.3044,4.60122,2470.624,2022-11-12T06:00:19Z
2022-11-12T04:01:24Z,42.805,6.029,13.3046,4.60101,2470.637,2022-11-12T06:03:22Z
2022-11-12T04:04:27Z,42.805,6.029,13.3046,4.60089,2470.637,2022-11-12T06:06:25Z
2022-11-12T04:07:30Z,42.805,6.029,13.3046,4.60079,2470.661,2022-11-12T06:09:28Z
2022-11-12T04:10:33Z,42.805,6.029,13.3038,4.60082,2470.624,2022-11-12T06:12:31Z
2022-11-12T04:13:37Z,42.805,6.029,13.3040,4.60089,2470.624,2022-11-12T06:15:34Z
2022-11-12T04:16:40Z,42.805,6.029,13.3045,4.60084,2470.661,2022-11-12T06:18:37Z
2022-11-12T04:19:43Z,42.805,6.029,13.3038,4.60081,2470.614,2022-11-12T06:21:41Z
2022-11-12T04:22:46Z,42.805,6.029,13.3037,4.60093,2470.637,2022-11-12T06:24:44Z
2022-11-12T04:25:49Z,42.805,6.029,13.3040,4.60107,2470.624,2022-11-12T06:27:47Z
2022-11-12T04:28:52Z,42.805,6.029,13.3038,4.60080,2470.624,2022-11-12T06:30:50Z
2022-11-12T04:31:55Z,42.805,6.029,13.3036,4.60084,2470.637,2022-11-12T06:33:53Z
2022-11-12T04:34:58Z,42.805,6.029,13.3036,4.60077,2470.6,2022-11-12T06:36:56Z
2022-11-12T04:38:01Z,42.805,6.029,13.3039,4.60077,2470.614,2022-11-12T06:39:59Z
2022-11-12T04:41:04Z,42.805,6.029,13.3035,4.60078,2470.624,2022-11-12T06:43:02Z
2022-11-12T04:44:07Z,42.805,6.029,13.3033,4.60077,2470.624,2022-11-12T06:46:05Z
2022-11-12T04:47:10Z,42.805,6.029,13.3032,4.60080,2470.646,2022-11-12T06:49:08Z
2022-11-12T04:50:13Z,42.805,6.029,13.3034,4.60076,2470.624,2022-11-12T06:52:11Z
2022-11-12T04:53:16Z,42.805,6.029,13.3035,4.60074,2470.624,2022-11-12T06:55:14Z
2022-11-12T04:56:20Z,42.805,6.029,13.3034,4.60074,2470.646,2022-11-12T06:58:17Z
2022-11-12T04:59:23Z,42.805,6.029,13.3035,4.60077,2470.646,2022-11-12T07:01:21Z
2022-11-12T05:02:26Z,42.805,6.029,13.3031,4.60076,2470.646,2022-11-12T07:04:24Z
2022-11-12T05:05:29Z,42.805,6.029,13.3034,4.60074,2470.646,2022-11-12T07:07:27Z
2022-11-12T05:08:32Z,42.805,6.029,13.3036,4.60071,2470.646,2022-11-12T07:10:30Z
2022-11-12T05:11:35Z,42.805,6.029,13.3029,4.60082,2470.661,2022-11-12T07:13:33Z
2022-11-12T05:14:38Z,42.805,6.029,13.3036,4.60077,2470.646,2022-11-12T07:16:36Z
2022-11-12T05:17:41Z,42.805,6.029,13.3037,4.60072,2470.684,2022-11-12T07:19:39Z
2022-11-12T05:20:44Z,42.805,6.029,13.3035,4.60081,2470.661,2022-11-12T07:22:42Z
2022-11-12T05:23:47Z,42.805,6.029,13.3036,4.60077,2470.67,2022-11-12T07:25:45Z
2022-11-12T05:26:50Z,42.805,6.029,13.3036,4.60074,2470.67,2022-11-12T07:28:48Z
2022-11-12T05:29:53Z,42.805,6.029,13.3038,4.60072,2470.661,2022-11-12T07:31:51Z
2022-11-12T05:32:57Z,42.805,6.029,13.3033,4.60074,2470.67,2022-11-12T07:34:54Z
2022-11-12T05:36:00Z,42.805,6.029,13.3031,4.60074,2470.637,2022-11-12T07:37:58Z
2022-11-12T05:39:03Z,42.805,6.029,13.3033,4.60072,2470.646,2022-11-12T07:41:01Z
2022-11-12T05:42:06Z,42.805,6.029,13.3032,4.60074,2470.67,2022-11-12T07:44:04Z
2022-11-12T05:45:09Z,42.805,6.029,13.3028,4.60068,2470.693,2022-11-12T07:47:07Z
2022-11-12T05:48:12Z,42.805,6.029,13.3033,4.60087,2470.693,2022-11-12T07:50:10Z
2022-11-12T05:51:15Z,42.805,6.029,13.3030,4.60072,2470.693,2022-11-12T07:53:13Z
2022-11-12T05:54:18Z,42.805,6.029,13.3033,4.60075,2470.717,2022-11-12T07:56:16Z
2022-11-12T05:57:21Z,42.805,6.029,13.3030,4.60072,2470.67,2022-11-12T07:59:19Z
2022-11-12T06:00:24Z,42.805,6.029,13.3031,4.60072,2470.717,2022-11-12T08:02:22Z
2022-11-12T06:03:27Z,42.805,6.029,13.3029,4.60088,2470.693,2022-11-12T08:05:25Z
2022-11-12T06:06:30Z,42.805,6.029,13.3032,4.60072,2470.684,2022-11-12T08:08:28Z
2022-11-12T06:09:33Z,42.805,6.029,13.3031,4.60073,2470.717,2022-11-12T08:11:31Z
2022-11-12T06:12:37Z,42.805,6.029,13.3032,4.60072,2470.717,2022-11-12T08:14:34Z
2022-11-12T06:15:40Z,42.805,6.029,13.3033,4.60072,2470.74,2022-11-12T08:17:37Z
2022-11-12T06:18:43Z,42.805,6.029,13.3029,4.60073,2470.707,2022-11-12T08:20:41Z
2022-11-12T06:21:46Z,42.805,6.029,13.3030,4.60072,2470.693,2022-11-12T08:23:44Z
2022-11-12T06:24:49Z,42.805,6.029,13.3026,4.60070,2470.693,2022-11-12T08:26:47Z
2022-11-12T06:27:52Z,42.805,6.029,13.3027,4.60072,2470.717,2022-11-12T08:29:50Z
2022-11-12T06:30:55Z,42.805,6.029,13.3029,4.60075,2470.754,2022-11-12T08:32:53Z
2022-11-12T06:33:58Z,42.805,6.029,13.3034,4.60076,2470.777,2022-11-12T08:35:56Z
2022-11-12T06:37:01Z,42.805,6.029,13.3031,4.60074,2470.754,2022-11-12T08:38:59Z
2022-11-12T06:40:04Z,42.805,6.029,13.3026,4.60071,2470.74,2022-11-12T08:42:02Z
2022-11-12T06:43:07Z,42.805,6.029,13.3034,4.60073,2470.74,2022-11-12T08:45:05Z
2022-11-12T06:46:10Z,42.805,6.029,13.3029,4.60074,2470.754,2022-11-12T08:48:08Z
2022-11-12T06:49:13Z,42.805,6.029,13.3037,4.60074,2470.754,2022-11-12T08:51:11Z
2022-11-12T06:52:17Z,42.805,6.029,13.3032,4.60074,2470.777,2022-11-12T08:54:14Z
2022-11-12T06:55:20Z,42.805,6.029,13.3027,4.60074,2470.763,2022-11-12T08:57:18Z
2022-11-12T06:58:23Z,42.805,6.029,13.3031,4.60072,2470.75,2022-11-12T09:00:21Z
2022-11-12T07:01:26Z,42.805,6.029,13.3031,4.60073,2470.787,2022-11-12T09:03:24Z
2022-11-12T07:04:29Z,42.805,6.029,13.3034,4.60072,2470.754,2022-11-12T09:06:27Z
2022-11-12T07:07:32Z,42.805,6.029,13.3034,4.60072,2470.8,2022-11-12T09:09:30Z
2022-11-12T07:10:35Z,42.805,6.029,13.3034,4.60070,2470.777,2022-11-12T09:12:33Z
2022-11-12T07:13:38Z,42.805,6.029,13.3029,4.60074,2470.754,2022-11-12T09:15:36Z
2022-11-12T07:16:41Z,42.805,6.029,13.3022,4.60073,2470.787,2022-11-12T09:18:39Z
2022-11-12T07:19:44Z,42.805,6.029,13.3030,4.60069,2470.763,2022-11-12T09:21:42Z
2022-11-12T07:22:47Z,42.805,6.029,13.3030,4.60072,2470.787,2022-11-12T09:24:45Z
2022-11-12T07:25:50Z,42.805,6.029,13.3030,4.60069,2470.74,2022-11-12T09:27:48Z
2022-11-12T07:28:53Z,42.805,6.029,13.3029,4.60068,2470.8,2022-11-12T09:30:51Z
2022-11-12T07:31:57Z,42.805,6.029,13.3029,4.60074,2470.787,2022-11-12T09:33:54Z
2022-11-12T07:35:00Z,42.805,6.029,13.3028,4.60072,2470.81,2022-11-12T09:36:58Z
2022-11-12T07:38:03Z,42.805,6.029,13.3026,4.60072,2470.777,2022-11-12T09:40:01Z
2022-11-12T07:41:06Z,42.805,6.029,13.3026,4.60074,2470.787,2022-11-12T09:43:04Z
2022-11-12T07:44:09Z,42.805,6.029,13.3027,4.60070,2470.763,2022-11-12T09:46:07Z
2022-11-12T07:47:12Z,42.805,6.029,13.3029,4.60072,2470.81,2022-11-12T09:49:10Z
2022-11-12T07:50:15Z,42.805,6.029,13.3033,4.60074,2470.787,2022-11-12T09:52:13Z
2022-11-12T07:53:18Z,42.805,6.029,13.3025,4.60073,2470.81,2022-11-12T09:55:16Z
2022-11-12T07:56:21Z,42.805,6.029,13.3026,4.60074,2470.847,2022-11-12T09:58:19Z
2022-11-12T07:59:24Z,42.805,6.029,13.3028,4.60068,2470.824,2022-11-12T10:01:22Z
2022-11-12T08:02:27Z,42.805,6.029,13.3028,4.60092,2470.81,2022-11-12T10:04:25Z
2022-11-12T08:05:30Z,42.805,6.029,13.3036,4.60074,2470.847,2022-11-12T10:07:28Z
2022-11-12T08:08:34Z,42.805,6.029,13.3031,4.60071,2470.81,2022-11-12T10:10:31Z
2022-11-12T08:11:37Z,42.805,6.029,13.3029,4.60072,2470.824,2022-11-12T10:13:34Z
2022-11-12T08:14:40Z,42.805,6.029,13.3029,4.60076,2470.833,2022-11-12T10:16:38Z
2022-11-12T08:17:43Z,42.805,6.029,13.3034,4.60073,2470.81,2022-11-12T10:19:41Z
2022-11-12T08:20:46Z,42.805,6.029,13.3028,4.60069,2470.81,2022-11-12T10:22:44Z
2022-11-12T08:23:49Z,42.805,6.029,13.3026,4.60074,2470.787,2022-11-12T10:25:47Z
2022-11-12T08:26:52Z,42.805,6.029,13.3033,4.60072,2470.833,2022-11-12T10:28:50Z
2022-11-12T08:29:55Z,42.805,6.029,13.3026,4.60072,2470.833,2022-11-12T10:31:53Z
2022-11-12T08:32:58Z,42.805,6.029,13.3032,4.60073,2470.81,2022-11-12T10:34:56Z
2022-11-12T08:36:01Z,42.805,6.029,13.3033,4.60072,2470.833,2022-11-12T10:37:59Z
2022-11-12T08:39:04Z,42.805,6.029,13.3039,4.60073,2470.833,2022-11-12T10:41:02Z
2022-11-12T08:42:07Z,42.805,6.029,13.3027,4.60072,2470.857,2022-11-12T10:44:05Z
2022-11-12T08:45:11Z,42.805,6.029,13.3032,4.60072,2470.847,2022-11-12T10:47:08Z
2022-11-12T08:48:14Z,42.805,6.029,13.3027,4.60069,2470.81,2022-11-12T10:50:12Z
2022-11-12T08:51:17Z,42.805,6.029,13.3028,4.60072,2470.833,2022-11-12T10:53:15Z
2022-11-12T08:54:20Z,42.805,6.029,13.3031,4.60072,2470.81,2022-11-12T10:56:18Z
2022-11-12T08:57:23Z,42.805,6.029,13.3029,4.60076,2470.81,2022-11-12T10:59:21Z
2022-11-12T09:00:26Z,42.805,6.029,13.3030,4.60073,2470.833,2022-11-12T11:02:24Z
2022-11-12T09:03:29Z,42.805,6.029,13.3031,4.60071,2470.833,2022-11-12T11:05:27Z
2022-11-12T09:06:32Z,42.805,6.029,13.3029,4.60071,2470.8,2022-11-12T11:08:30Z
2022-11-12T09:09:35Z,42.805,6.029,13.3030,4.60074,2470.81,2022-11-12T11:11:33Z
2022-11-12T09:12:38Z,42.805,6.029,13.3024,4.60070,2470.847,2022-11-12T11:14:36Z
2022-11-12T09:15:41Z,42.805,6.029,13.3034,4.60067,2470.847,2022-11-12T11:17:39Z
2022-11-12T09:18:44Z,42.805,6.029,13.3026,4.60068,2470.857,2022-11-12T11:20:42Z
2022-11-12T09:21:48Z,42.805,6.029,13.3029,4.60079,2470.88,2022-11-12T11:23:45Z
2022-11-12T09:24:51Z,42.805,6.029,13.3030,4.60075,2470.833,2022-11-12T11:26:49Z
2022-11-12T09:27:54Z,42.805,6.029,13.3029,4.60072,2470.847,2022-11-12T11:29:52Z
2022-11-12T09:30:57Z,42.805,6.029,13.3031,4.60069,2470.833,2022-11-12T11:32:55Z
2022-11-12T09:34:00Z,42.805,6.029,13.3030,4.60072,2470.833,2022-11-12T11:35:58Z
2022-11-12T09:37:03Z,42.805,6.029,13.3035,4.60073,2470.824,2022-11-12T11:39:01Z
2022-11-12T09:40:06Z,42.805,6.029,13.3026,4.60072,2470.833,2022-11-12T11:42:04Z
2022-11-12T09:43:09Z,42.805,6.029,13.3019,4.60069,2470.857,2022-11-12T11:45:07Z
2022-11-12T09:46:12Z,42.805,6.029,13.3026,4.60070,2470.857,2022-11-12T11:48:10Z
2022-11-12T09:49:15Z,42.805,6.029,13.3034,4.60072,2470.8,2022-11-12T11:51:13Z
2022-11-12T09:52:18Z,42.805,6.029,13.3031,4.60073,2470.81,2022-11-12T11:54:16Z
2022-11-12T09:55:21Z,42.805,6.029,13.3025,4.60072,2470.871,2022-11-12T11:57:19Z
2022-11-12T09:58:25Z,42.805,6.029,13.3031,4.60072,2470.787,2022-11-12T12:00:22Z
2022-11-12T10:01:28Z,42.805,6.029,13.3028,4.60072,2470.833,2022-11-12T12:03:26Z
2022-11-12T10:04:31Z,42.805,6.029,13.3026,4.60069,2470.847,2022-11-12T12:06:29Z
2022-11-12T10:07:34Z,42.805,6.029,13.3027,4.60072,2470.833,2022-11-12T12:09:32Z
2022-11-12T10:10:37Z,42.805,6.029,13.3029,4.60072,2470.787,2022-11-12T12:12:35Z
2022-11-12T10:13:40Z,42.805,6.029,13.3034,4.60076,2470.833,2022-11-12T12:15:38Z
2022-11-12T10:16:43Z,42.805,6.029,13.3028,4.60072,2470.847,2022-11-12T12:18:41Z
2022-11-12T10:19:46Z,42.805,6.029,13.3030,4.60070,2470.847,2022-11-12T12:21:44Z
2022-11-12T10:22:49Z,42.805,6.029,13.3029,4.60070,2470.81,2022-11-12T12:24:47Z
2022-11-12T10:25:52Z,42.805,6.029,13.3029,4.60074,2470.824,2022-11-12T12:27:50Z
2022-11-12T10:28:55Z,42.805,6.029,13.3034,4.60070,2470.833,2022-11-12T12:30:53Z
2022-11-12T10:31:58Z,42.805,6.029,13.3031,4.60074,2470.833,2022-11-12T12:33:56Z
2022-11-12T10:35:02Z,42.805,6.029,13.3034,4.60073,2470.833,2022-11-12T12:36:59Z
2022-11-12T10:38:05Z,42.805,6.029,13.3031,4.60078,2470.824,2022-11-12T12:40:02Z
2022-11-12T10:41:08Z,42.805,6.029,13.3029,4.60070,2470.824,2022-11-12T12:43:06Z
2022-11-12T10:44:11Z,42.805,6.029,13.3031,4.60074,2470.81,2022-11-12T12:46:09Z
2022-11-12T10:47:14Z,42.805,6.029,13.3029,4.60074,2470.833,2022-11-12T12:49:12Z
2022-11-12T10:50:17Z,42.805,6.029,13.3036,4.60077,2470.787,2022-11-12T12:52:15Z
2022-11-12T10:53:20Z,42.805,6.029,13.3032,4.60072,2470.8,2022-11-12T12:55:18Z
2022-11-12T10:56:23Z,42.805,6.029,13.3030,4.60072,2470.833,2022-11-12T12:58:21Z
2022-11-12T10:59:26Z,42.805,6.029,13.3025,4.60072,2470.81,2022-11-12T13:01:24Z
2022-11-12T11:02:29Z,42.805,6.029,13.3036,4.60072,2470.787,2022-11-12T13:04:27Z
2022-11-12T11:05:32Z,42.805,6.029,13.3034,4.60072,2470.787,2022-11-12T13:07:30Z
2022-11-12T11:08:35Z,42.805,6.029,13.3030,4.60072,2470.8,2022-11-12T13:10:33Z
2022-11-12T11:11:39Z,42.805,6.029,13.3026,4.60071,2470.81,2022-11-12T13:13:36Z
2022-11-12T11:14:42Z,42.805,6.029,13.3032,4.60072,2470.787,2022-11-12T13:16:40Z
2022-11-12T11:17:45Z,42.805,6.029,13.3029,4.60075,2470.8,2022-11-12T13:19:43Z
2022-11-12T11:20:48Z,42.805,6.029,13.3031,4.60075,2470.787,2022-11-12T13:22:46Z
2022-11-12T11:23:51Z,42.805,6.029,13.3031,4.60072,2470.824,2022-11-12T13:25:49Z
2022-11-12T11:26:54Z,42.805,6.029,13.3031,4.60074,2470.8,2022-11-12T13:28:52Z
2022-11-12T11:29:57Z,42.805,6.029,13.3032,4.60071,2470.787,2022-11-12T13:31:55Z
2022-11-12T11:33:00Z,42.805,6.029,13.3032,4.60074,2470.8,2022-11-12T13:34:58Z
2022-11-12T11:36:03Z,42.805,6.029,13.3029,4.60072,2470.8,2022-11-12T13:38:01Z
2022-11-12T11:39:06Z,42.805,6.029,13.3023,4.60069,2470.763,2022-11-12T13:41:04Z
2022-11-12T11:42:09Z,42.805,6.029,13.3029,4.60071,2470.787,2022-11-12T13:44:07Z
2022-11-12T11:45:12Z,42.805,6.029,13.3025,4.60074,2470.777,2022-11-12T13:47:10Z
2022-11-12T11:48:16Z,42.805,6.029,13.3026,4.60071,2470.763,2022-11-12T13:50:13Z
2022-11-12T11:51:19Z,42.805,6.029,13.3034,4.60073,2470.8,2022-11-12T13:53:16Z
2022-11-12T11:54:22Z,42.805,6.029,13.3034,4.60069,2470.763,2022-11-12T13:56:20Z
2022-11-12T11:57:25Z,42.805,6.029,13.3034,4.60072,2470.787,2022-11-12T13:59:23Z
2022-11-12T12:00:28Z,42.805,6.029,13.3024,4.60075,2470.763,2022-11-12T14:02:26Z
2022-11-12T12:03:31Z,42.805,6.029,13.3034,4.60072,2470.763,2022-11-12T14:05:29Z
2022-11-12T12:06:34Z,42.805,6.029,13.3031,4.60075,2470.777,2022-11-12T14:08:32Z
2022-11-12T12:09:37Z,42.805,6.029,13.3030,4.60074,2470.777,2022-11-12T14:11:35Z
2022-11-12T12:12:40Z,42.805,6.029,13.3036,4.60073,2470.777,2022-11-12T14:14:38Z
2022-11-12T12:15:43Z,42.805,6.029,13.3023,4.60069,2470.74,2022-11-12T14:17:41Z
2022-11-12T12:18:46Z,42.805,6.029,13.3025,4.60074,2470.777,2022-11-12T14:20:44Z
2022-11-12T12:21:49Z,42.805,6.029,13.3039,4.60073,2470.763,2022-11-12T14:23:47Z
2022-11-12T12:24:53Z,42.805,6.029,13.3030,4.60074,2470.787,2022-11-12T14:26:50Z
2022-11-12T12:27:56Z,42.805,6.029,13.3021,4.60079,2470.787,2022-11-12T14:29:54Z
2022-11-12T12:30:59Z,42.805,6.029,13.3038,4.60076,2470.777,2022-11-12T14:32:57Z
2022-11-12T12:34:02Z,42.805,6.029,13.3034,4.60070,2470.777,2022-11-12T14:36:00Z
2022-11-12T12:37:05Z,42.805,6.029,13.3026,4.60071,2470.74,2022-11-12T14:39:03Z
2022-11-12T12:40:08Z,42.805,6.029,13.3029,4.60067,2470.777,2022-11-12T14:42:06Z
2022-11-12T12:43:11Z,42.805,6.029,13.3028,4.60068,2470.74,2022-11-12T14:45:09Z
2022-11-12T12:46:14Z,42.805,6.029,13.3027,4.60071,2470.74,2022-11-12T14:48:12Z
2022-11-12T12:49:17Z,42.805,6.029,13.3025,4.60068,2470.763,2022-11-12T14:51:15Z
2022-11-12T12:52:20Z,42.805,6.029,13.3032,4.60069,2470.754,2022-11-12T14:54:18Z
2022-11-12T12:55:23Z,42.805,6.029,13.3029,4.60072,2470.74,2022-11-12T14:57:21Z
2022-11-12T12:58:26Z,42.805,6.029,13.3024,4.60072,2470.754,2022-11-12T15:00:24Z
2022-11-12T13:01:29Z,42.805,6.029,13.3034,4.60072,2470.777,2022-11-12T15:03:27Z
2022-11-12T13:04:33Z,42.805,6.029,13.3027,4.60070,2470.754,2022-11-12T15:06:30Z
2022-11-12T13:07:36Z,42.805,6.029,13.3030,4.60072,2470.717,2022-11-12T15:09:34Z
2022-11-12T13:10:39Z,42.805,6.029,13.3031,4.60072,2470.754,2022-11-12T15:12:37Z
2022-11-12T13:13:42Z,42.805,6.029,13.3027,4.60072,2470.754,2022-11-12T15:15:40Z
2022-11-12T13:16:45Z,42.805,6.029,13.3026,4.60089,2470.763,2022-11-12T15:18:43Z
2022-11-12T13:19:48Z,42.805,6.029,13.3031,4.60072,2470.73,2022-11-12T15:21:46Z
2022-11-12T13:22:51Z,42.805,6.029,13.3037,4.60071,2470.73,2022-11-12T15:24:49Z
2022-11-12T13:25:54Z,42.805,6.029,13.3031,4.60075,2470.73,2022-11-12T15:27:52Z
2022-11-12T13:28:57Z,42.805,6.029,13.3035,4.60076,2470.717,2022-11-12T15:30:55Z
2022-11-12T13:32:00Z,42.805,6.029,13.3031,4.60072,2470.74,2022-11-12T15:33:58Z
2022-11-12T13:35:03Z,42.805,6.029,13.3038,4.60067,2470.73,2022-11-12T15:37:01Z
2022-11-12T13:38:07Z,42.805,6.029,13.3036,4.60075,2470.74,2022-11-12T15:40:04Z
2022-11-12T13:41:10Z,42.805,6.029,13.3035,4.60077,2470.717,2022-11-12T15:43:08Z
2022-11-12T13:44:13Z,42.805,6.029,13.3031,4.60075,2470.74,2022-11-12T15:46:11Z
2022-11-12T13:47:16Z,42.805,6.029,13.3031,4.60074,2470.693,2022-11-12T15:49:14Z
2022-11-12T13:50:19Z,42.805,6.029,13.3027,4.60070,2470.74,2022-11-12T15:52:17Z
2022-11-12T13:53:22Z,42.805,6.029,13.3029,4.60074,2470.693,2022-11-12T15:55:20Z
2022-11-12T13:56:25Z,42.805,6.029,13.3033,4.60080,2470.707,2022-11-12T15:58:23Z
2022-11-12T13:59:28Z,42.805,6.029,13.3036,4.60078,2470.693,2022-11-12T16:01:26Z
2022-11-12T14:02:31Z,42.805,6.029,13.3038,4.60074,2470.74,2022-11-12T16:04:29Z
2022-11-12T14:05:34Z,42.805,6.029,13.3038,4.60079,2470.73,2022-11-12T16:07:32Z
2022-11-12T14:08:37Z,42.805,6.029,13.3034,4.60072,2470.707,2022-11-12T16:10:35Z
2022-11-12T14:11:40Z,42.805,6.029,13.3028,4.60074,2470.717,2022-11-12T16:13:38Z
2022-11-12T14:14:43Z,42.805,6.029,13.3026,4.60079,2470.73,2022-11-12T16:16:41Z
2022-11-12T14:17:47Z,42.805,6.029,13.3032,4.60074,2470.74,2022-11-12T16:19:44Z
2022-11-12T14:20:50Z,42.805,6.029,13.3031,4.60079,2470.73,2022-11-12T16:22:48Z
2022-11-12T14:23:53Z,42.805,6.029,13.3031,4.60074,2470.73,2022-11-12T16:25:51Z
2022-11-12T14:26:56Z,42.805,6.029,13.3039,4.60084,2470.73,2022-11-12T16:28:54Z
2022-11-12T14:29:59Z,42.805,6.029,13.3039,4.60075,2470.67,2022-11-12T16:31:57Z
2022-11-12T14:33:02Z,42.805,6.029,13.3029,4.60079,2470.707,2022-11-12T16:35:00Z
2022-11-12T14:36:05Z,42.805,6.029,13.3037,4.60074,2470.693,2022-11-12T16:38:03Z
2022-11-12T14:39:08Z,42.805,6.029,13.3032,4.60079,2470.693,2022-11-12T16:41:06Z
2022-11-12T14:42:11Z,42.805,6.029,13.3035,4.60074,2470.67,2022-11-12T16:44:09Z
2022-11-12T14:45:14Z,42.805,6.029,13.3035,4.60080,2470.717,2022-11-12T16:47:12Z
2022-11-12T14:48:17Z,42.805,6.029,13.3035,4.60082,2470.67,2022-11-12T16:50:15Z
2022-11-12T14:51:20Z,42.805,6.029,13.3031,4.60075,2470.67,2022-11-12T16:53:18Z
2022-11-12T14:54:24Z,42.805,6.029,13.3036,4.60077,2470.693,2022-11-12T16:56:21Z
2022-11-12T14:57:27Z,42.805,6.029,13.3039,4.60080,2470.693,2022-11-12T16:59:25Z
2022-11-12T15:00:30Z,42.805,6.029,13.3040,4.60073,2470.707,2022-11-12T17:02:28Z